This demonstration page uses our WeatherBlox Daily Observations layout. Learn more.

39.29038, -76.61219

Hourly Observations for April 20, 2016

Temp ( °F °C ) Dew Point ( °F °C ) Humidity (%) Winds ( mph kmh ) Pressure ( in mb ) Visibility ( mi km ) Precip ( " mm )
12:54 am 00:54 undefined 58 14.4 21 -6.1 24 24 undefined N/A 30.19 1023 N/A 0 0
1:54 am 01:54 undefined 56 13.3 22 -5.6 27 27 undefined N/A 30.21 1023 N/A 0 0
2:54 am 02:54 undefined 56 13.3 23 -5 28 28 undefined N/A 30.21 1023 N/A 0 0
3:54 am 03:54 undefined 55 12.8 23 -5 29 29 undefined N/A 30.23 1024 N/A 0 0
4:54 am 04:54 undefined 54 12.2 24 -4.4 31 31 undefined N/A 30.23 1024 N/A 0 0
5:54 am 05:54 undefined 53 11.7 25 -3.9 34 34 undefined N/A 30.25 1024 N/A 0 0
6:54 am 06:54 undefined 52 11.1 25 -3.9 35 35 undefined N/A 30.28 1025 N/A 0 0
7:54 am 07:54 undefined 55 12.8 25 -3.9 31 31 undefined N/A 30.29 1026 N/A 0 0
8:54 am 08:54 undefined 57 13.9 26 -3.3 30 30 undefined N/A 30.31 1026 N/A 0 0
9:54 am 09:54 undefined 61 16.1 27 -2.8 27 27 undefined N/A 30.32 1027 N/A 0 0
10:54 am 10:54 undefined 62 16.7 28 -2.2 28 28 undefined N/A 30.32 1027 N/A 0 0
11:54 am 11:54 undefined 64 17.8 24 -4.4 22 22 undefined N/A 30.3 1026 N/A 0 0
12:54 pm 12:54 undefined 66 18.9 26 -3.3 22 22 undefined N/A 30.27 1025 N/A 0 0
1:54 pm 13:54 undefined 68 20 21 -6.1 17 17 undefined N/A 30.25 1025 N/A 0 0
2:54 pm 14:54 undefined 69 20.6 29 -1.7 22 22 undefined N/A 30.24 1024 N/A 0 0
3:54 pm 15:54 undefined 68 20 25 -3.9 20 20 undefined N/A 30.22 1024 N/A 0 0
4:54 pm 16:54 undefined 67 19.4 29 -1.7 24 24 undefined N/A 30.21 1023 N/A 0 0
5:54 pm 17:54 undefined 66 18.9 23 -5 19 19 undefined N/A 30.21 1023 N/A 0 0
6:54 pm 18:54 undefined 65 18.3 19 -7.2 17 17 undefined N/A 30.21 1023 N/A 0 0
7:54 pm 19:54 undefined 64 17.8 29 -1.7 27 27 undefined N/A 30.2 1023 N/A 0 0
8:54 pm 20:54 undefined 64 17.8 23 -5 21 21 undefined N/A 30.21 1023 N/A 0 0
9:54 pm 21:54 undefined 63 17.2 21 -6.1 20 20 undefined N/A 30.22 1023 N/A 0 0
10:54 pm 22:54 undefined 59 15 22 -5.6 24 24 undefined N/A 30.22 1023 N/A 0 0
11:54 pm 23:54 undefined 57 13.9 39 3.9 51 51 undefined N/A 30.22 1023 N/A 0 0

Powered by AerisWeather